Location: Boursonne
(49.2024°N, 3.0468°E)
Time: 00:19:22
(UTC+00:00)

NOSS 3-3 (A) - Pass Details

Date: 03 March 2021
Orbit: 815 x 1397 km, 63.4° (Epoch: 13 April)

Event Time Altitude Azimuth Distance (km) Brightness Sun altitude
Rises 20:06:55 0° 317° (NW) 3,905 8.2 -25.3°
Reaches altitude 10° 20:09:28 10° 319° (NW) 3,025 7.4 -25.7°
Maximum altitude 20:16:50 75° 45° (NE) 1,293 4.4 -26.8°
Enters shadow 20:18:42 56° 112° (ESE) 1,496 4.5 -27.1°
